Simultaneous Nadir Overpasses (SNOs) Predictions

Prediction of SNOs between AURA and NPP Satellite Orbit:

Table of predicted SNOs for the next 14.0 days since TLE Epoch: 3/12/2022
Index Date (AURA) Time (AURA) Lat,Lon (AURA) SZA (AURA ) Date (NPP) Time (NPP) Lat,Lon (NPP) SZA (NPP ) Distance(km) Time Diff (sec)
1 03/14/2022 11:25:39 79.41, -95.11 95.32 03/14/2022 11:24:54 79.41, -95.16 95.36 1.11 45
2 03/14/2022 12:14:59 -79.68, 74.42 85.10 03/14/2022 12:15:31 -79.69, 74.46 85.13 0.92 32
3 03/17/2022 03:42:04 79.55, 21.72 94.04 03/17/2022 03:41:45 79.55, 21.74 94.05 0.34 19
4 03/17/2022 04:31:25 -79.78,-168.96 86.32 03/17/2022 04:32:23 -79.79,-168.86 86.38 2.16 58
5 03/19/2022 19:09:11 -79.37, -31.27 86.76 03/19/2022 19:08:01 -79.38, -31.23 86.72 0.87 70
6 03/19/2022 19:58:31 79.59, 137.88 92.91 03/19/2022 19:58:39 79.59, 137.81 92.92 1.60 8
7 03/22/2022 11:25:35 -79.51, 85.52 88.03 03/22/2022 11:24:52 -79.51, 85.62 88.02 2.07 43
8 03/22/2022 12:14:56 79.68,-105.58 91.70 03/22/2022 12:15:31 79.68,-105.59 91.67 0.26 35
9 03/25/2022 03:42:00 -79.54,-158.35 89.16 03/25/2022 03:41:45 -79.54,-158.35 89.15 0.22 15



Historial Predications of SNOs between AURA and NPP
